Location: Bannatyne
(13.0833°N, 59.5333°W)
Time: 20:56:38
(UTC+00:00)

Explorer 7 - All Passes

Search period start: 24 January 2020 00:00
Search period end: 03 February 2020 00:00
Orbit: 485 x 679 km, 50.3° (Epoch: 24 January)

Date Brightness Start Highest point End Pass type
(mag) Time Alt. Az. Time Alt. Az. Time Alt. Az.
24 Jan - 01:31:44 10° WSW 01:34:54 23° NW 01:37:58 10° N night (unlit)
24 Jan - 10:06:58 10° N 10:09:59 19° NE 10:13:09 10° E daylight
24 Jan - 11:46:36 10° WNW 11:50:24 30° SW 11:54:26 10° S daylight
24 Jan - 23:55:38 10° SSW 23:59:28 39° SE 00:03:07 10° ENE visible
25 Jan - 01:38:30 10° WNW 01:39:53 12° NW 01:41:15 10° NNW night (unlit)
25 Jan - 10:11:03 10° NNW 10:14:56 37° NE 10:19:02 10° ESE daylight
25 Jan - 11:52:43 10° W 11:55:17 15° SW 11:57:58 10° SSW daylight
26 Jan - 00:00:15 10° SW 00:04:21 88° NW 00:08:13 10° NE visible
26 Jan - 10:15:39 10° NW 10:19:49 78° NE 10:24:16 10° SE daylight
26 Jan - 22:27:24 10° SSE 22:28:56 12° SE 22:30:25 10° ESE visible
27 Jan - 00:05:25 10° WSW 00:09:14 39° NW 00:12:52 10° NNE visible
27 Jan - 08:42:45 10° NNE 08:44:13 12° NE 08:45:43 10° ENE visible
27 Jan - 10:20:39 10° NW 10:24:41 49° SW 10:29:00 10° SSE daylight
27 Jan - 22:30:22 10° S 22:33:48 24° SE 22:37:05 10° ENE visible
28 Jan - 00:11:13 10° W 00:14:10 19° NW 00:17:00 10° N visible
28 Jan - 08:45:58 10° N 08:49:12 22° NE 08:52:34 10° ESE visible
28 Jan - 10:26:11 10° WNW 10:29:34 23° SW 10:33:07 10° S daylight
28 Jan - 22:34:34 10° SSW 22:38:41 53° SE 22:42:34 10° NE visible
29 Jan - 08:50:14 10° NNW 08:54:07 45° NE 08:58:14 10° SE visible
29 Jan - 10:32:59 10° WSW 10:34:27 12° SW 10:35:57 10° SSW daylight
29 Jan - 22:39:22 10° SW 22:43:34 69° NW 22:47:31 10° NNE visible
30 Jan - 08:54:57 10° NW 08:59:00 83° SW 09:03:18 10° SE visible
30 Jan - 21:05:30 10° SSE 21:08:07 16° SE 21:10:39 10° E daylight
30 Jan - 22:44:41 10° WSW 22:48:27 31° NW 22:52:02 10° NNE visible
31 Jan - 07:21:24 10° NNE 07:23:27 14° NE 07:25:34 10° E visible
31 Jan - 09:00:06 10° WNW 09:03:52 37° SW 09:07:52 10° SSE visible
31 Jan - 21:09:06 10° S 21:12:59 32° SE 21:16:40 10° ENE daylight
31 Jan - 22:50:45 10° W 22:53:23 16° NW 22:55:56 10° N visible
01 Feb - 07:25:02 10° N 07:28:25 27° NE 07:31:56 10° ESE visible
01 Feb - 09:05:55 10° W 09:08:45 18° SW 09:11:42 10° S visible
01 Feb - 21:13:32 10° SSW 21:17:53 69° SE 21:21:57 10° NE daylight
02 Feb - 07:29:27 10° NNW 07:33:18 57° NE 07:37:24 10° SE visible
02 Feb - 21:18:29 10° SW 21:22:45 54° NW 21:26:45 10° NNE daylight
